Погода в Вакине

Россия / Рязанская область     54°52′12″N   39°29′05″E
темп.,
°C
ветер,
м/с
пор.,
м/с
влажн.,
%
обл.,
%
осадки,
мм/ч
давл.,
гПа
погр.,
м
23 апреля, пт
пт2300:00+7ю512855 0.0 1018228
03:00+6ю410895 0.0 1017194
06:00+6ю4108936 0.2 1018206
09:00+12ююз6116855 0.6 1018560
12:00+16ю794689 0.1 10162439
15:00+16ю7105025 0.1 10152130
18:00+14ююв6115952 0.3 1013586
21:00+9ю378668 1.1 1013139
24 апреля, сб
сб2400:00+8юв3689100 0.2 1011127
03:00+7ююв499397 0.2 1009241
06:00+7ююв5994100 0.1 1007301
09:00+5зсз5693100 0.9 1006385
12:00+3з4997100 4.8 1007521
15:00+4з4796100 5.8 1007615
18:00+5зюз368568 0.1 1007679
21:00+4юз3589100 0.3 1006119
25 апреля, вс
вс2500:00+3зюз4994100 0.7 1006517
03:00+3сз61397100 1.5 1007717
06:00+1з6138565 0.2 1009464
09:00+4з7107367 0.2 10101180
12:00+6з7106193 0.5 10111704
15:00+8зюз91254100 1.4 10112066
18:00+7зюз686485 0.6 1011961
21:00+3юз5109199 1.4 1011843
26 апреля, пн
пн2600:00+2юз510935 0.4 1012364
03:00+1юз410905 0.4 1013257
06:000юз49885 0.0 1013266
09:00+5юз57635 0.0 10131095
12:00+8юз675291 0.4 10121805
15:00+9зюз564875 1.4 10111850
18:00+8з465771 0.7 1011477
21:00+4юз117114 1.1 101012
27 апреля, вт
вт2700:00+2зюз22766 0.0 101012
03:00+1ююз1180100 0.0 100910
06:00+2ю2281100 0.0 100832
09:00+5зюз2365100 0.0 1007566
12:00+7зсз435996 0.3 10071176
15:00+8з345183 0.6 10071562
18:00+7з46616 1.2 1007639
21:00+3зюз410760 1.2 1008188